| time (UTC) | temp F | wind direction | speed MPH | gust MPH | rain 1hr in | rain 24hr in | rain mn in | humidity % | barometer mb |
| 20260906144944 | 75 | 163 | 1.0 | 5.0 | 0.00 | 0.17 | 0.00 | 77 | 1044.8 |
| 20260906144710 | 75 | 332 | 1.0 | 3.0 | 0.00 | 0.17 | 0.00 | 79 | 1044.8 |
| 20260906143946 | 74 | 103 | 1.0 | 5.0 | 0.00 | 0.17 | 0.00 | 79 | 1044.8 |
| 20260906143447 | 74 | 93 | 1.0 | 5.0 | 0.00 | 0.17 | 0.00 | 77 | 1044.9 |
| 20260906142941 | 74 | 147 | 1.0 | 3.0 | 0.00 | 0.17 | 0.00 | 77 | 1044.9 |
| 20260906142429 | 74 | 317 | 1.0 | 5.0 | 0.00 | 0.17 | 0.00 | 77 | 1044.9 |
| 20260906141927 | 74 | 80 | 1.0 | 5.0 | 0.00 | 0.17 | 0.00 | 77 | 1044.6 |
| 20260906141428 | 75 | 282 | 0.0 | 2.0 | 0.00 | 0.17 | 0.00 | 80 | 1044.6 |
| 20260906140927 | 75 | 222 | 0.0 | 2.0 | 0.00 | 0.17 | 0.00 | 81 | 1044.6 |
| 20260906140652 | 74 | 305 | 0.0 | 2.0 | 0.00 | 0.17 | 0.00 | 80 | 1044.5 |
| 20260906135927 | 73 | 138 | 1.0 | 5.0 | 0.00 | 0.17 | 0.00 | 80 | 1044.5 |
| 20260906135654 | 73 | 67 | 1.0 | 5.0 | 0.00 | 0.17 | 0.00 | 81 | 1044.5 |
| 20260906134930 | 72 | 122 | 1.0 | 3.0 | 0.00 | 0.17 | 0.00 | 82 | 1044.6 |
| 20260906134430 | 71 | 323 | 1.0 | 3.0 | 0.00 | 0.17 | 0.00 | 83 | 1044.6 |
| 20260906133924 | 71 | 86 | 1.0 | 2.0 | 0.00 | 0.17 | 0.00 | 84 | 1044.6 |
| 20260906133413 | 71 | 80 | 1.0 | 3.0 | 0.00 | 0.17 | 0.00 | 85 | 1044.5 |
| 20260906132900 | 70 | 88 | 1.0 | 5.0 | 0.00 | 0.17 | 0.00 | 86 | 1044.5 |
| 20260906132836 | 70 | 305 | 0.0 | 5.0 | 0.00 | 0.17 | 0.00 | 88 | 1044.7 |
| 20260906131840 | 70 | 344 | 0.0 | 2.0 | 0.00 | 0.17 | 0.00 | 89 | 1044.7 |
| 20260906131340 | 69 | 90 | 0.0 | 3.0 | 0.00 | 0.17 | 0.00 | 93 | 1044.7 |
| 20260906130833 | 68 | 329 | 0.0 | 3.0 | 0.00 | 0.17 | 0.00 | 95 | 1044.5 |
| 20260906130551 | 68 | 149 | 0.0 | 1.0 | 0.00 | 0.17 | 0.00 | 99 | 1044.5 |
| 20260906125822 | 67 | 127 | 0.0 | 0.0 | 0.00 | 0.17 | 0.00 | 99 | 1044.5 |
| 20260906125309 | 66 | 127 | 0.0 | 0.0 | 0.00 | 0.17 | 0.00 | 99 | 1044.5 |
| 20260906124809 | 65 | 127 | 0.0 | 0.0 | 0.00 | 0.17 | 0.00 | 99 | 1044.5 |
| 20260906124304 | 66 | 159 | 0.0 | 0.0 | 0.00 | 0.17 | 0.00 | 99 | 1044.5 |
| 20260906123758 | 65 | 159 | 0.0 | 0.0 | 0.00 | 0.17 | 0.00 | 99 | 1044.5 |
| 20260906123245 | 65 | 159 | 0.0 | 0.0 | 0.00 | 0.17 | 0.00 | 99 | 1044.5 |
| 20260906122745 | 65 | 159 | 0.0 | 0.0 | 0.00 | 0.17 | 0.00 | 99 | 1044.5 |
| 20260906122239 | 64 | 159 | 0.0 | 0.0 | 0.00 | 0.17 | 0.00 | 99 | 1044.2 |
| 20260906121727 | 62 | 159 | 0.0 | 0.0 | 0.00 | 0.17 | 0.00 | 99 | 1044.2 |
| 20260906121228 | 60 | 159 | 0.0 | 0.0 | 0.00 | 0.17 | 0.00 | 99 | 1044.2 |
| 20260906120723 | 59 | 159 | 0.0 | 0.0 | 0.00 | 0.17 | 0.00 | 99 | 1043.9 |
| 20260906120435 | 58 | 159 | 0.0 | 0.0 | 0.00 | 0.17 | 0.00 | 99 | 1043.9 |
| 20260906115929 | 58 | 159 | 0.0 | 0.0 | 0.00 | 0.17 | 0.00 | 99 | 1043.9 |
| 20260906115428 | 58 | 159 | 0.0 | 0.0 | 0.00 | 0.17 | 0.00 | 99 | 1043.6 |
| 20260906114922 | 57 | 159 | 0.0 | 0.0 | 0.00 | 0.17 | 0.00 | 99 | 1043.6 |
| 20260906114147 | 57 | 159 | 0.0 | 0.0 | 0.00 | 0.17 | 0.00 | 99 | 1043.6 |
| 20260906113646 | 57 | 159 | 0.0 | 0.0 | 0.00 | 0.17 | 0.00 | 99 | 1043.4 |
| 20260906113358 | 57 | 159 | 0.0 | 0.0 | 0.00 | 0.17 | 0.00 | 99 | 1043.4 |
| 20260906112633 | 57 | 159 | 0.0 | 0.0 | 0.00 | 0.17 | 0.00 | 99 | 1043.4 |
| 20260906112127 | 57 | 159 | 0.0 | 0.0 | 0.00 | 0.17 | 0.00 | 99 | 1043.3 |
| 20260906111622 | 57 | 159 | 0.0 | 0.0 | 0.00 | 0.17 | 0.00 | 99 | 1043.3 |
| 20260906111555 | 57 | 159 | 0.0 | 0.0 | 0.00 | 0.17 | 0.00 | 99 | 1043.3 |
| 20260906110602 | 57 | 159 | 0.0 | 0.0 | 0.00 | 0.17 | 0.00 | 99 | 1043.3 |
| 20260906110104 | 56 | 159 | 0.0 | 0.0 | 0.00 | 0.17 | 0.00 | 99 | 1043.3 |
| 20260906105553 | 56 | 159 | 0.0 | 0.0 | 0.00 | 0.17 | 0.00 | 99 | 1043.3 |
| 20260906105315 | 56 | 159 | 0.0 | 0.0 | 0.00 | 0.17 | 0.00 | 99 | 1043.3 |
| 20260906104546 | 56 | 159 | 0.0 | 0.0 | 0.00 | 0.17 | 0.00 | 99 | 1043.3 |
| 20260906104040 | 56 | 159 | 0.0 | 0.0 | 0.00 | 0.17 | 0.00 | 99 | 1043.3 |
| 20260906103534 | 56 | 159 | 0.0 | 0.0 | 0.00 | 0.17 | 0.00 | 99 | 1042.9 |
| 20260906103021 | 56 | 159 | 0.0 | 0.0 | 0.00 | 0.17 | 0.00 | 99 | 1042.9 |
| 20260906102743 | 56 | 159 | 0.0 | 0.0 | 0.00 | 0.17 | 0.00 | 99 | 1042.9 |
| 20260906102247 | 56 | 159 | 0.0 | 0.0 | 0.00 | 0.17 | 0.00 | 99 | 1042.8 |
| 20260906101509 | 56 | 159 | 0.0 | 0.0 | 0.00 | 0.17 | 0.00 | 99 | 1042.8 |
| 20260906100959 | 56 | 159 | 0.0 | 0.0 | 0.00 | 0.17 | 0.00 | 99 | 1042.8 |
| 20260906100454 | 56 | 159 | 0.0 | 0.0 | 0.00 | 0.17 | 0.00 | 99 | 1042.7 |
| 20260906095943 | 56 | 159 | 0.0 | 0.0 | 0.00 | 0.17 | 0.00 | 99 | 1042.7 |
| 20260906095441 | 57 | 159 | 0.0 | 0.0 | 0.00 | 0.17 | 0.00 | 99 | 1042.7 |
| 20260906094930 | 57 | 159 | 0.0 | 0.0 | 0.00 | 0.17 | 0.00 | 99 | 1042.5 |
| 20260906094429 | 57 | 159 | 0.0 | 0.0 | 0.00 | 0.17 | 0.00 | 99 | 1042.5 |
| 20260906093924 | 58 | 159 | 0.0 | 0.0 | 0.00 | 0.17 | 0.00 | 99 | 1042.5 |
| 20260906093417 | 58 | 159 | 0.0 | 0.0 | 0.00 | 0.17 | 0.00 | 99 | 1042.4 |
| 20260906092912 | 58 | 159 | 0.0 | 0.0 | 0.00 | 0.17 | 0.00 | 99 | 1042.4 |
| 20260906092626 | 58 | 159 | 0.0 | 0.0 | 0.00 | 0.17 | 0.00 | 99 | 1042.4 |
| 20260906091901 | 58 | 159 | 0.0 | 0.0 | 0.00 | 0.17 | 0.00 | 99 | 1042.3 |
| 20260906091353 | 58 | 159 | 0.0 | 0.0 | 0.00 | 0.17 | 0.00 | 99 | 1042.3 |
| 20260906090848 | 58 | 159 | 0.0 | 0.0 | 0.00 | 0.17 | 0.00 | 99 | 1042.2 |
| 20260906090342 | 58 | 159 | 0.0 | 0.0 | 0.00 | 0.17 | 0.00 | 99 | 1042.2 |
| 20260906085836 | 58 | 159 | 0.0 | 0.0 | 0.00 | 0.17 | 0.00 | 99 | 1042.2 |
| 20260906085330 | 58 | 159 | 0.0 | 0.0 | 0.00 | 0.17 | 0.00 | 99 | 1042.2 |
| 20260906084824 | 58 | 159 | 0.0 | 0.0 | 0.00 | 0.17 | 0.00 | 99 | 1042.2 |
| 20260906084317 | 58 | 159 | 0.0 | 0.0 | 0.00 | 0.17 | 0.00 | 99 | 1042.2 |
| 20260906083805 | 58 | 159 | 0.0 | 0.0 | 0.00 | 0.17 | 0.00 | 99 | 1042.2 |
| 20260906083531 | 58 | 159 | 0.0 | 0.0 | 0.00 | 0.17 | 0.00 | 99 | 1042.2 |
| 20260906082801 | 59 | 159 | 0.0 | 0.0 | 0.00 | 0.17 | 0.00 | 99 | 1042.2 |
| 20260906082253 | 59 | 159 | 0.0 | 0.0 | 0.00 | 0.17 | 0.00 | 99 | 1042.0 |
| 20260906081748 | 59 | 159 | 0.0 | 0.0 | 0.00 | 0.17 | 0.00 | 99 | 1042.0 |
| 20260906081241 | 59 | 159 | 0.0 | 0.0 | 0.00 | 0.17 | 0.00 | 99 | 1042.0 |
| 20260906080736 | 59 | 159 | 0.0 | 0.0 | 0.00 | 0.17 | 0.00 | 99 | 1042.1 |
| 20260906080223 | 59 | 159 | 0.0 | 0.0 | 0.00 | 0.17 | 0.00 | 99 | 1042.1 |
| 20260906075724 | 59 | 159 | 0.0 | 0.0 | 0.00 | 0.17 | 0.00 | 99 | 1042.1 |
| 20260906075218 | 59 | 159 | 0.0 | 0.0 | 0.00 | 0.17 | 0.00 | 99 | 1042.0 |
| 20260906074712 | 59 | 159 | 0.0 | 0.0 | 0.00 | 0.17 | 0.00 | 99 | 1042.0 |
| 20260906074206 | 60 | 159 | 0.0 | 0.0 | 0.00 | 0.17 | 0.00 | 99 | 1042.0 |
| 20260906073653 | 60 | 159 | 0.0 | 0.0 | 0.00 | 0.17 | 0.00 | 98 | 1041.9 |
| 20260906073153 | 60 | 159 | 0.0 | 0.0 | 0.00 | 0.17 | 0.00 | 98 | 1041.9 |
| 20260906072648 | 60 | 159 | 0.0 | 0.0 | 0.00 | 0.17 | 0.00 | 98 | 1041.9 |
| 20260906072404 | 60 | 159 | 0.0 | 0.0 | 0.00 | 0.17 | 0.00 | 98 | 1041.8 |
| 20260906071635 | 61 | 159 | 0.0 | 0.0 | 0.00 | 0.17 | 0.00 | 99 | 1041.8 |
| 20260906071348 | 61 | 159 | 0.0 | 0.0 | 0.00 | 0.17 | 0.00 | 99 | 1041.8 |
| 20260906070624 | 61 | 159 | 0.0 | 0.0 | 0.00 | 0.17 | 0.00 | 99 | 1041.9 |
| 20260906070333 | 61 | 159 | 0.0 | 0.0 | 0.00 | 0.17 | 0.00 | 99 | 1041.9 |
| 20260906065609 | 61 | 159 | 0.0 | 0.0 | 0.00 | 0.17 | 0.00 | 99 | 1041.9 |
| 20260906065102 | 61 | 159 | 0.0 | 0.0 | 0.00 | 0.17 | 0.00 | 99 | 1041.8 |
| 20260906064556 | 61 | 159 | 0.0 | 0.0 | 0.00 | 0.17 | 0.00 | 98 | 1041.8 |
| 20260906064059 | 61 | 159 | 0.0 | 0.0 | 0.00 | 0.17 | 0.00 | 98 | 1041.8 |
| 20260906063556 | 61 | 159 | 0.0 | 0.0 | 0.00 | 0.17 | 0.00 | 99 | 1041.8 |
| 20260906063056 | 61 | 159 | 0.0 | 0.0 | 0.00 | 0.17 | 0.00 | 99 | 1041.8 |
| 20260906062557 | 61 | 159 | 0.0 | 0.0 | 0.00 | 0.17 | 0.00 | 98 | 1041.8 |
| 20260906062056 | 61 | 159 | 0.0 | 0.0 | 0.00 | 0.17 | 0.00 | 98 | 1041.7 |
| 20260906061556 | 62 | 159 | 0.0 | 0.0 | 0.00 | 0.17 | 0.00 | 98 | 1041.7 |
| 20260906061057 | 62 | 159 | 0.0 | 0.0 | 0.00 | 0.17 | 0.00 | 98 | 1041.7 |
| 20260906060556 | 62 | 159 | 0.0 | 0.0 | 0.00 | 0.17 | 0.00 | 98 | 1041.6 |
| 20260906060059 | 62 | 159 | 0.0 | 0.0 | 0.00 | 0.17 | 0.00 | 98 | 1041.6 |
| 20260906055817 | 62 | 159 | 0.0 | 0.0 | 0.00 | 0.17 | 0.00 | 98 | 1041.6 |
| 20260906055326 | 63 | 159 | 0.0 | 0.0 | 0.00 | 0.17 | 0.00 | 98 | 1041.8 |
| 20260906054542 | 63 | 159 | 0.0 | 0.0 | 0.00 | 0.17 | 0.00 | 98 | 1041.8 |
| 20260906054300 | 63 | 159 | 0.0 | 0.0 | 0.00 | 0.17 | 0.00 | 98 | 1041.8 |
| 20260906053540 | 63 | 159 | 0.0 | 0.0 | 0.00 | 0.17 | 0.00 | 98 | 1041.8 |
| 20260906053301 | 63 | 159 | 0.0 | 0.0 | 0.00 | 0.17 | 0.00 | 98 | 1041.8 |
| 20260906052540 | 64 | 159 | 0.0 | 0.0 | 0.00 | 0.17 | 0.00 | 98 | 1041.8 |
| 20260906052040 | 64 | 159 | 0.0 | 0.0 | 0.00 | 0.17 | 0.00 | 98 | 1041.8 |
| 20260906051541 | 64 | 159 | 0.0 | 0.0 | 0.00 | 0.17 | 0.00 | 98 | 1041.8 |
| 20260906051043 | 64 | 159 | 0.0 | 0.0 | 0.00 | 0.17 | 0.00 | 98 | 1041.8 |
| 20260906050543 | 64 | 159 | 0.0 | 0.0 | 0.00 | 0.17 | 0.00 | 98 | 1041.8 |
| 20260906050037 | 65 | 159 | 0.0 | 0.0 | 0.00 | 0.17 | 0.00 | 98 | 1041.8 |
| 20260906045526 | 65 | 159 | 0.0 | 0.0 | 0.00 | 0.17 | 0.00 | 98 | 1041.8 |
| 20260906045228 | 65 | 159 | 0.0 | 0.0 | 0.00 | 0.17 | 0.00 | 98 | 1041.8 |
| 20260906044458 | 65 | 159 | 0.0 | 0.0 | 0.00 | 0.17 | 0.00 | 98 | 1041.8 |
| 20260906043946 | 65 | 159 | 0.0 | 0.0 | 0.00 | 0.17 | 0.00 | 98 | 1041.8 |
| 20260906043435 | 66 | 159 | 0.0 | 0.0 | 0.00 | 0.17 | 0.00 | 98 | 1042.1 |
| 20260906042924 | 66 | 159 | 0.0 | 0.0 | 0.00 | 0.17 | 0.00 | 98 | 1042.1 |
| 20260906042418 | 66 | 159 | 0.0 | 0.0 | 0.00 | 0.17 | 0.00 | 98 | 1042.1 |
| 20260906041908 | 66 | 159 | 0.0 | 0.0 | 0.00 | 0.17 | 0.00 | 98 | 1042.3 |
| 20260906041406 | 66 | 159 | 0.0 | 0.0 | 0.00 | 0.17 | 0.00 | 98 | 1042.3 |
| 20260906040855 | 67 | 159 | 0.0 | 0.0 | 0.00 | 0.17 | 0.00 | 98 | 1042.3 |
| 20260906040354 | 67 | 159 | 0.0 | 0.0 | 0.00 | 0.17 | 0.00 | 97 | 1042.2 |
| 20260906035844 | 67 | 159 | 0.0 | 0.0 | 0.00 | 0.17 | 0.17 | 97 | 1042.2 |
| 20260906035342 | 67 | 159 | 0.0 | 0.0 | 0.00 | 0.17 | 0.17 | 97 | 1042.2 |
| 20260906034836 | 67 | 159 | 0.0 | 0.0 | 0.00 | 0.17 | 0.17 | 97 | 1042.2 |
| 20260906034327 | 67 | 159 | 0.0 | 0.0 | 0.00 | 0.17 | 0.17 | 97 | 1042.2 |
| 20260906033824 | 68 | 159 | 0.0 | 0.0 | 0.00 | 0.17 | 0.17 | 97 | 1042.3 |
| 20260906033319 | 68 | 159 | 0.0 | 0.0 | 0.00 | 0.17 | 0.17 | 97 | 1042.3 |
| 20260906033040 | 68 | 159 | 0.0 | 0.0 | 0.00 | 0.17 | 0.17 | 97 | 1042.3 |
| 20260906032307 | 68 | 159 | 0.0 | 0.0 | 0.00 | 0.17 | 0.17 | 98 | 1042.2 |
| 20260906031800 | 68 | 159 | 0.0 | 0.0 | 0.00 | 0.17 | 0.17 | 97 | 1042.2 |
| 20260906031517 | 69 | 159 | 0.0 | 0.0 | 0.00 | 0.17 | 0.17 | 97 | 1042.2 |
| 20260906030744 | 69 | 159 | 0.0 | 0.0 | 0.00 | 0.17 | 0.17 | 97 | 1042.1 |
| 20260906030243 | 69 | 159 | 0.0 | 0.0 | 0.00 | 0.17 | 0.17 | 97 | 1042.1 |
| 20260906025736 | 69 | 159 | 0.0 | 0.0 | 0.00 | 0.17 | 0.17 | 97 | 1042.1 |
| 20260906025452 | 69 | 159 | 0.0 | 0.0 | 0.00 | 0.17 | 0.17 | 97 | 1041.8 |
| 20260906024724 | 69 | 159 | 0.0 | 0.0 | 0.00 | 0.17 | 0.17 | 97 | 1041.8 |
| 20260906024449 | 69 | 159 | 0.0 | 0.0 | 0.00 | 0.17 | 0.17 | 97 | 1041.8 |
| 20260906023933 | 69 | 159 | 0.0 | 0.0 | 0.00 | 0.17 | 0.17 | 97 | 1041.7 |
| 20260906023202 | 70 | 159 | 0.0 | 0.0 | 0.00 | 0.17 | 0.17 | 97 | 1041.7 |
| 20260906022700 | 70 | 159 | 0.0 | 0.0 | 0.00 | 0.17 | 0.17 | 97 | 1041.7 |
| 20260906022155 | 70 | 159 | 0.0 | 0.0 | 0.00 | 0.17 | 0.17 | 97 | 1041.6 |
| 20260906021644 | 70 | 159 | 0.0 | 0.0 | 0.00 | 0.17 | 0.17 | 97 | 1041.6 |
| 20260906021142 | 70 | 159 | 0.0 | 0.0 | 0.00 | 0.17 | 0.17 | 97 | 1041.6 |
| 20260906020636 | 70 | 159 | 0.0 | 0.0 | 0.00 | 0.17 | 0.17 | 97 | 1041.5 |
| 20260906020130 | 70 | 159 | 0.0 | 0.0 | 0.00 | 0.17 | 0.17 | 97 | 1041.5 |
| 20260906015619 | 70 | 159 | 0.0 | 0.0 | 0.00 | 0.17 | 0.17 | 97 | 1041.5 |
| 20260906015118 | 70 | 159 | 0.0 | 0.0 | 0.00 | 0.17 | 0.17 | 97 | 1041.3 |
| 20260906014612 | 70 | 159 | 0.0 | 0.0 | 0.00 | 0.17 | 0.17 | 97 | 1041.3 |
| 20260906014106 | 70 | 159 | 0.0 | 0.0 | 0.00 | 0.17 | 0.17 | 97 | 1041.3 |
| 20260906013600 | 70 | 159 | 0.0 | 0.0 | 0.00 | 0.17 | 0.17 | 97 | 1041.3 |
| 20260906013054 | 70 | 159 | 0.0 | 0.0 | 0.00 | 0.17 | 0.17 | 97 | 1041.3 |
| 20260906012544 | 70 | 159 | 0.0 | 0.0 | 0.00 | 0.17 | 0.17 | 97 | 1041.3 |
| 20260906012038 | 71 | 159 | 0.0 | 0.0 | 0.00 | 0.17 | 0.17 | 97 | 1041.0 |
| 20260906011536 | 71 | 159 | 0.0 | 0.0 | 0.00 | 0.17 | 0.17 | 97 | 1041.0 |
| 20260906011030 | 71 | 159 | 0.0 | 0.0 | 0.00 | 0.17 | 0.17 | 97 | 1041.0 |
| 20260906010524 | 71 | 159 | 0.0 | 0.0 | 0.00 | 0.17 | 0.17 | 96 | 1040.8 |
| 20260906010018 | 71 | 159 | 0.0 | 0.0 | 0.00 | 0.17 | 0.17 | 96 | 1040.8 |
| 20260906005512 | 71 | 159 | 0.0 | 0.0 | 0.00 | 0.17 | 0.17 | 96 | 1040.8 |
| 20260906005006 | 71 | 159 | 0.0 | 0.0 | 0.00 | 0.17 | 0.17 | 96 | 1040.7 |
| 20260906004455 | 71 | 159 | 0.0 | 0.0 | 0.00 | 0.17 | 0.17 | 96 | 1040.7 |
| 20260906003954 | 71 | 159 | 0.0 | 0.0 | 0.00 | 0.17 | 0.17 | 96 | 1040.7 |
| 20260906003444 | 71 | 159 | 0.0 | 0.0 | 0.00 | 0.17 | 0.17 | 96 | 1040.7 |
| 20260906002942 | 71 | 159 | 0.0 | 0.0 | 0.00 | 0.17 | 0.17 | 96 | 1040.7 |
| 20260906002436 | 71 | 159 | 0.0 | 0.0 | 0.00 | 0.17 | 0.17 | 96 | 1040.7 |
| 20260906001930 | 71 | 159 | 0.0 | 0.0 | 0.00 | 0.17 | 0.17 | 96 | 1040.6 |
| 20260906001424 | 71 | 159 | 0.0 | 0.0 | 0.00 | 0.17 | 0.17 | 96 | 1040.6 |
| 20260906000913 | 71 | 159 | 0.0 | 0.0 | 0.00 | 0.17 | 0.17 | 96 | 1040.6 |
| 20260906000634 | 71 | 159 | 0.0 | 0.0 | 0.00 | 0.17 | 0.17 | 95 | 1040.4 |
| 20260905235905 | 71 | 159 | 0.0 | 0.0 | 0.00 | 0.17 | 0.17 | 95 | 1040.4 |
| 20260905235625 | 71 | 159 | 0.0 | 0.0 | 0.00 | 0.17 | 0.17 | 95 | 1040.4 |
| 20260905234854 | 72 | 159 | 0.0 | 0.0 | 0.00 | 0.17 | 0.17 | 95 | 1040.4 |
| 20260905234348 | 72 | 159 | 0.0 | 0.0 | 0.00 | 0.17 | 0.17 | 95 | 1040.4 |
| 20260905234102 | 72 | 159 | 0.0 | 0.0 | 0.00 | 0.17 | 0.17 | 95 | 1040.3 |
| 20260905233822 | 72 | 159 | 0.0 | 0.0 | 0.00 | 0.17 | 0.17 | 94 | 1040.3 |
| 20260905233046 | 72 | 159 | 0.0 | 0.0 | 0.00 | 0.17 | 0.17 | 94 | 1040.3 |
| 20260905232323 | 73 | 159 | 0.0 | 0.0 | 0.00 | 0.17 | 0.17 | 94 | 1040.3 |
| 20260905231818 | 73 | 159 | 0.0 | 0.0 | 0.00 | 0.17 | 0.17 | 93 | 1040.3 |
| 20260905231312 | 73 | 159 | 0.0 | 0.0 | 0.00 | 0.17 | 0.17 | 93 | 1040.3 |
| 20260905230806 | 73 | 159 | 0.0 | 0.0 | 0.00 | 0.17 | 0.17 | 93 | 1040.3 |
| 20260905230259 | 74 | 159 | 0.0 | 0.0 | 0.00 | 0.17 | 0.17 | 92 | 1040.3 |
| 20260905230021 | 74 | 159 | 0.0 | 0.0 | 0.00 | 0.17 | 0.17 | 92 | 1040.3 |
| 20260905225254 | 74 | 159 | 0.0 | 0.0 | 0.00 | 0.17 | 0.17 | 91 | 1040.3 |
| 20260905224752 | 75 | 159 | 0.0 | 0.0 | 0.00 | 0.17 | 0.17 | 91 | 1040.3 |
| 20260905224249 | 76 | 159 | 0.0 | 0.0 | 0.00 | 0.17 | 0.17 | 90 | 1040.3 |
| 20260905223750 | 76 | 159 | 0.0 | 0.0 | 0.00 | 0.17 | 0.17 | 89 | 1040.1 |
| 20260905223249 | 77 | 159 | 0.0 | 0.0 | 0.00 | 0.17 | 0.17 | 89 | 1040.1 |
| 20260905222744 | 77 | 159 | 0.0 | 0.0 | 0.00 | 0.17 | 0.17 | 88 | 1040.1 |
| 20260905222244 | 78 | 159 | 0.0 | 2.0 | 0.00 | 0.17 | 0.17 | 87 | 1039.9 |
| 20260905221743 | 79 | 159 | 1.0 | 3.0 | 0.00 | 0.17 | 0.17 | 86 | 1039.9 |
| 20260905221241 | 80 | 159 | 0.0 | 3.0 | 0.00 | 0.17 | 0.17 | 84 | 1039.9 |
| 20260905220739 | 80 | 146 | 0.0 | 0.0 | 0.00 | 0.17 | 0.17 | 85 | 1039.7 |
| 20260905220238 | 80 | 74 | 0.0 | 0.0 | 0.00 | 0.17 | 0.17 | 85 | 1039.7 |
| 20260905215736 | 80 | 71 | 0.0 | 2.0 | 0.00 | 0.17 | 0.17 | 83 | 1039.7 |
| 20260905215236 | 80 | 13 | 0.0 | 2.0 | 0.00 | 0.17 | 0.17 | 83 | 1039.7 |
| 20260905214734 | 81 | 165 | 0.0 | 0.0 | 0.00 | 0.17 | 0.17 | 84 | 1039.7 |
| 20260905214233 | 81 | 110 | 0.0 | 0.0 | 0.00 | 0.17 | 0.17 | 83 | 1039.7 |
| 20260905213736 | 81 | 111 | 0.0 | 0.0 | 0.00 | 0.17 | 0.17 | 81 | 1039.3 |
| 20260905213237 | 81 | 229 | 0.0 | 0.0 | 0.00 | 0.17 | 0.17 | 86 | 1039.3 |
| 20260905212730 | 80 | 229 | 0.0 | 0.0 | 0.00 | 0.17 | 0.17 | 87 | 1039.3 |
| 20260905212219 | 79 | 195 | 0.0 | 2.0 | 0.00 | 0.17 | 0.17 | 87 | 1039.4 |
| 20260905211713 | 78 | 195 | 0.0 | 2.0 | 0.00 | 0.17 | 0.17 | 86 | 1039.4 |
| 20260905211208 | 78 | 76 | 0.0 | 2.0 | 0.00 | 0.17 | 0.17 | 88 | 1039.4 |
| 20260905210701 | 78 | 111 | 0.0 | 0.0 | 0.00 | 0.17 | 0.17 | 91 | 1039.2 |
| 20260905210155 | 77 | 107 | 1.0 | 3.0 | 0.00 | 0.17 | 0.17 | 90 | 1039.2 |
| 20260905205650 | 77 | 109 | 1.0 | 3.0 | 0.01 | 0.17 | 0.17 | 90 | 1039.2 |
| 20260905205356 | 77 | 87 | 0.0 | 3.0 | 0.02 | 0.17 | 0.17 | 90 | 1039.2 |
| 20260905204637 | 77 | 113 | 0.0 | 1.0 | 0.04 | 0.17 | 0.17 | 92 | 1039.2 |
| 20260905204131 | 76 | 144 | 0.0 | 1.0 | 0.11 | 0.17 | 0.17 | 93 | 1039.2 |
| 20260905203843 | 75 | 105 | 0.0 | 1.0 | 0.12 | 0.17 | 0.17 | 93 | 1039.5 |
| 20260905203119 | 75 | 237 | 0.0 | 0.0 | 0.15 | 0.17 | 0.17 | 94 | 1039.5 |
| 20260905202614 | 74 | 238 | 0.0 | 1.0 | 0.15 | 0.17 | 0.17 | 93 | 1039.5 |
| 20260905202109 | 74 | 204 | 0.0 | 3.0 | 0.15 | 0.17 | 0.17 | 94 | 1039.8 |
| 20260905201835 | 74 | 196 | 1.0 | 3.0 | 0.15 | 0.17 | 0.17 | 94 | 1039.8 |
| 20260905201107 | 74 | 335 | 0.0 | 2.0 | 0.15 | 0.17 | 0.17 | 93 | 1039.8 |
| 20260905200606 | 74 | 231 | 0.0 | 2.0 | 0.15 | 0.17 | 0.17 | 94 | 1039.8 |
| 20260905200107 | 74 | 278 | 0.0 | 2.0 | 0.15 | 0.17 | 0.17 | 94 | 1039.8 |
| 20260905195830 | 74 | 184 | 0.0 | 2.0 | 0.14 | 0.16 | 0.16 | 93 | 1039.8 |
| 20260905195107 | 74 | 277 | 0.0 | 2.0 | 0.13 | 0.15 | 0.15 | 92 | 1039.8 |
| 20260905194605 | 75 | 49 | 0.0 | 0.0 | 0.11 | 0.13 | 0.14 | 91 | 1039.8 |
| 20260905194103 | 76 | 51 | 0.0 | 0.0 | 0.04 | 0.06 | 0.06 | 90 | 1039.8 |
| 20260905193603 | 77 | 51 | 0.0 | 0.0 | 0.03 | 0.05 | 0.05 | 88 | 1039.9 |
| 20260905193103 | 78 | 259 | 0.0 | 2.0 | 0.00 | 0.02 | 0.02 | 87 | 1039.9 |
| 20260905192603 | 79 | 259 | 0.0 | 2.0 | 0.00 | 0.03 | 0.02 | 84 | 1039.9 |
| 20260905192058 | 80 | 128 | 0.0 | 3.0 | 0.00 | 0.03 | 0.02 | 83 | 1039.8 |
| 20260905191817 | 80 | 19 | 0.0 | 3.0 | 0.00 | 0.03 | 0.02 | 82 | 1039.8 |
| 20260905191054 | 80 | 307 | 0.0 | 2.0 | 0.00 | 0.06 | 0.02 | 83 | 1039.8 |
| 20260905190553 | 80 | 17 | 0.0 | 2.0 | 0.00 | 0.19 | 0.02 | 82 | 1040.1 |
| 20260905190051 | 80 | 306 | 0.0 | 1.0 | 0.00 | 0.27 | 0.02 | 82 | 1040.1 |
| 20260905185549 | 80 | 323 | 0.0 | 2.0 | 0.00 | 0.27 | 0.02 | 84 | 1040.1 |
| 20260905185530 | 80 | 335 | 0.0 | 3.0 | 0.00 | 0.27 | 0.02 | 84 | 1040.2 |
| 20260905184545 | 80 | 101 | 0.0 | 3.0 | 0.00 | 0.27 | 0.02 | 84 | 1040.2 |
| 20260905184043 | 79 | 264 | 0.0 | 0.0 | 0.00 | 0.27 | 0.02 | 84 | 1040.2 |
| 20260905183536 | 79 | 262 | 0.0 | 0.0 | 0.00 | 0.27 | 0.02 | 85 | 1040.3 |
| 20260905183031 | 80 | 262 | 0.0 | 0.0 | 0.00 | 0.27 | 0.02 | 86 | 1040.3 |
| 20260905182747 | 79 | 256 | 1.0 | 3.0 | 0.00 | 0.27 | 0.02 | 85 | 1040.3 |
| 20260905182018 | 80 | 241 | 2.0 | 4.0 | 0.00 | 0.27 | 0.02 | 83 | 1040.3 |
| 20260905181733 | 80 | 255 | 2.0 | 6.0 | 0.00 | 0.27 | 0.02 | 83 | 1040.3 |
| 20260905181003 | 80 | 234 | 1.0 | 6.0 | 0.00 | 0.27 | 0.02 | 82 | 1040.3 |
| 20260905180501 | 80 | 284 | 1.0 | 7.0 | 0.00 | 0.27 | 0.02 | 83 | 1040.3 |
| 20260905175955 | 80 | 274 | 2.0 | 7.0 | 0.00 | 0.27 | 0.02 | 84 | 1040.3 |
| 20260905175449 | 80 | 118 | 1.0 | 5.0 | 0.00 | 0.27 | 0.02 | 83 | 1040.3 |
| 20260905174943 | 80 | 138 | 0.0 | 0.0 | 0.00 | 0.27 | 0.02 | 83 | 1040.5 |
| 20260905174443 | 79 | 109 | 0.0 | 0.0 | 0.00 | 0.27 | 0.02 | 85 | 1040.5 |
| 20260905173940 | 79 | 105 | 0.0 | 0.0 | 0.00 | 0.27 | 0.02 | 85 | 1040.5 |
| 20260905173441 | 78 | 156 | 0.0 | 0.0 | 0.00 | 0.27 | 0.02 | 85 | 1040.7 |
| 20260905172940 | 78 | 96 | 0.0 | 0.0 | 0.00 | 0.27 | 0.02 | 88 | 1040.7 |
| 20260905172439 | 78 | 102 | 0.0 | 0.0 | 0.00 | 0.27 | 0.02 | 86 | 1040.7 |
| 20260905171937 | 78 | 103 | 0.0 | 0.0 | 0.00 | 0.27 | 0.02 | 86 | 1040.8 |
| 20260905171437 | 78 | 95 | 0.0 | 0.0 | 0.00 | 0.27 | 0.02 | 88 | 1040.8 |
| 20260905170935 | 77 | 95 | 0.0 | 0.0 | 0.00 | 0.27 | 0.02 | 88 | 1040.8 |
| 20260905170434 | 77 | 95 | 0.0 | 0.0 | 0.00 | 0.27 | 0.02 | 89 | 1041.1 |
| 20260905165932 | 76 | 95 | 0.0 | 0.0 | 0.00 | 0.27 | 0.02 | 91 | 1041.1 |
| 20260905165431 | 76 | 95 | 0.0 | 0.0 | 0.02 | 0.27 | 0.02 | 90 | 1041.1 |
| 20260905165417 | 76 | 95 | 0.0 | 0.0 | 0.02 | 0.27 | 0.02 | 92 | 1041.3 |
| 20260905164433 | 76 | 123 | 0.0 | 0.0 | 0.02 | 0.27 | 0.02 | 91 | 1041.3 |
| 20260905163927 | 75 | 123 | 0.0 | 0.0 | 0.02 | 0.27 | 0.02 | 91 | 1041.3 |
| 20260905163415 | 75 | 123 | 0.0 | 0.0 | 0.02 | 0.27 | 0.02 | 92 | 1041.3 |
| 20260905163138 | 74 | 123 | 0.0 | 0.0 | 0.02 | 0.27 | 0.02 | 91 | 1041.3 |
| 20260905162415 | 74 | 123 | 0.0 | 0.0 | 0.02 | 0.27 | 0.02 | 92 | 1041.3 |
| 20260905162359 | 74 | 123 | 0.0 | 0.0 | 0.02 | 0.27 | 0.02 | 93 | 1041.4 |
| 20260905161415 | 74 | 123 | 0.0 | 0.0 | 0.02 | 0.27 | 0.02 | 93 | 1041.4 |
| 20260905160914 | 74 | 123 | 0.0 | 0.0 | 0.02 | 0.27 | 0.02 | 93 | 1041.4 |
| 20260905160637 | 74 | 123 | 0.0 | 0.0 | 0.02 | 0.27 | 0.02 | 93 | 1041.8 |
| 20260905155917 | 74 | 123 | 0.0 | 0.0 | 0.02 | 0.27 | 0.02 | 92 | 1041.8 |
| 20260905155417 | 74 | 230 | 0.0 | 0.0 | 0.00 | 0.25 | 0.00 | 92 | 1041.8 |
| 20260905154912 | 74 | 230 | 0.0 | 0.0 | 0.00 | 0.25 | 0.00 | 92 | 1041.8 |
| 20260905154359 | 74 | 230 | 0.0 | 0.0 | 0.00 | 0.25 | 0.00 | 92 | 1041.8 |
| 20260905153847 | 75 | 230 | 0.0 | 0.0 | 0.00 | 0.25 | 0.00 | 92 | 1041.8 |
| 20260905153335 | 75 | 234 | 0.0 | 0.0 | 0.00 | 0.25 | 0.00 | 91 | 1041.8 |
| 20260905152823 | 75 | 232 | 0.0 | 0.0 | 0.00 | 0.25 | 0.00 | 90 | 1041.8 |
| 20260905152532 | 75 | 233 | 0.0 | 0.0 | 0.00 | 0.25 | 0.00 | 90 | 1042.1 |
| 20260905152031 | 75 | 238 | 0.0 | 0.0 | 0.00 | 0.25 | 0.00 | 91 | 1042.1 |
| 20260905151256 | 75 | 239 | 0.0 | 0.0 | 0.00 | 0.25 | 0.00 | 90 | 1042.1 |
| 20260905151006 | 75 | 238 | 0.0 | 0.0 | 0.00 | 0.25 | 0.00 | 90 | 1042.2 |
| 20260905150510 | 75 | 238 | 0.0 | 0.0 | 0.00 | 0.25 | 0.00 | 90 | 1042.2 |
| 20260905145738 | 75 | 265 | 0.0 | 1.0 | 0.00 | 0.25 | 0.00 | 91 | 1042.2 |
| 20260905145231 | 75 | 268 | 0.0 | 1.0 | 0.00 | 0.25 | 0.00 | 91 | 1041.8 |